紫金山第1彗星

62P/Tsuchinshan 1 (2023)

English version
Home page
Updated on July 27, 2024

---------------------------------------------------------------------

・ プロフィール

・ 写真集

・ 軌道要素

Epoch 2024 Mar. 31.0 TT = JDT 2460400.5
T 2023 Dec. 25.11528 TT                                 Rudenko
q   1.2649397            (2000.0)            P               Q
n   0.15938742     Peri.   47.30243     -0.43554389     -0.89687406
a   3.3689923      Node    68.66644     +0.79986290     -0.42480116
e   0.6245347      Incl.    4.73749     +0.41294172     -0.12312955
P   6.18
>From 1990 observations 2023 Aug. 29-2024 June 1, mean residual 0".5.
     Nongravitational parameters A1 = +0.58, A2 = +0.4696.

・ 星図

・ 光度変化

        m1 = 10.0 + 5 logΔ + 30.0 log r          [    ,-100]  (              〜2023年 9月16日)
        m1 =  3.0 + 5 logΔ + 60   log r          [-100,   0]  (2023年 9月16日〜2023年12月25日)
        m1 =  6.2 + 5 logΔ + 28.0 log r(t - 10)  [   0,    ]  (2023年12月25日〜              )

---------------------------------------------------------------------

軌道要素はM.P.E.C. 2024-M41に掲載されたものです。
星図はステラナビゲータ Ver.10 (アストロアーツ) で作成したものです。
光度グラフはComet for Windowsで作成したものです。

---------------------------------------------------------------------

Copyright(C) Seiichi Yoshida (comet@aerith.net). All rights reserved.